Location: Albuquerque Trailhead
(34.7934°N, 106.3736°W)
Time: 01:00:27
(UTC+00:00)

Nadezhda 2 Rocket - Pass Details

Date: 20 June 2021
Orbit: 949 x 1010 km, 83.0° (Epoch: 27 July)

Event Time Altitude Azimuth Distance (km) Brightness Sun altitude
Exits shadow 10:45:36 - 184° (S) 3,262 6.8 -12.1°
Reaches altitude 10° 10:47:10 10° 184° (S) 2,665 6.4 -11.8°
Maximum altitude 10:53:16 90° 167° (SSE) 953 4.5 -10.9°
Drops below altitude 10° 10:59:24 10° 6° (N) 2,682 7.5 -9.9°
Sets 11:01:54 0° 7° (N) 3,635 8.2 -9.5°
